Jackson, TN

4:45 PM CDT on August 23, 2017 (GMT -0500)
McKellar-Sipes Regional

Weather History for KMKL - June, 2013

Change the Weather History Date:

Saturday, June 22, 2013

  Actual Average Record
Temperature  
Mean Temperature 79 °F 78 °F  
Max Temperature 89 °F 89 °F 100 °F (1988)
Min Temperature 68 °F 67 °F 47 °F (1992)
Degree Days  
Heating Degree Days 0 0  
Month to date heating degree days 0 0  
Since 1 June heating degree days 0 0  
Since 1 July heating degree days 3662 3572  
Cooling Degree Days 14 13  
Month to date cooling degree days 226 232  
Year to date cooling degree days 426 447  
Since 1 June cooling degree days 226 232  
Growing Degree Days 29 (Base 50)    
Moisture  
Dew Point 68 °F    
Average Humidity 72    
Maximum Humidity 93    
Minimum Humidity 50    
Precipitation  
Precipitation 0.00 in 0.15 in 1.84 in (1990)
Month to date precipitation 2.53 3.69  
Year to date precipitation 37.51 27.23  
Snow  
Snow 0.00 in - - ()
Month to date snowfall 0.0  
Since 1 June snowfall 0.0  
Snow Depth 0.00 in    
Sea Level Pressure  
Sea Level Pressure 30.10 in    
Wind  
Wind Speed 4 mph (South)    
Max Wind Speed 10 mph    
Max Gust Speed 14 mph    
Visibility 10 miles    
Events      
T = Trace of Precipitation, MM = Missing Value Source: NWS Daily Summary

Daily Weather History Graph

Daily Weather History Graph

Search for Another Location

Airport or City:

Trip Planner

Search our weather history database for the weather conditions in past years. The results will help you decide how hot, cold, wet, or windy it might be!

Date:

Astronomy

Jun. 22, 2013 Rise Set
Actual Time 5:40 AM CDT 8:14 PM CDT
Civil Twilight 5:10 AM CDT 8:44 PM CDT
Nautical Twilight 4:33 AM CDT 9:22 PM CDT
Astronomical Twilight 3:51 AM CDT 10:03 PM CDT
Moon 7:31 PM CDT (6/22) 4:51 AM CDT (6/22)
Length of Visible Light 15h 34m
Length of Day
14h 34m
Waxing Gibbous, 99% of the Moon is Illuminated
Jun 22
Waxing Gibbous
Jun 23
Full
Jun 29
Last Quarter
Jul 8
New
Jul 15
First Quarter

Hourly Weather History & Observations

Time (CDT) Temp. Heat Index Dew Point Humidity Pressure Visibility Wind Dir Wind Speed Gust Speed Precip Events Conditions
12:53 AM 73.9 °F - 68.0 °F 82% 30.11 in 10.0 mi South 4.6 mph - N/A   Clear
1:53 AM 73.0 °F - 66.9 °F 81% 30.09 in 10.0 mi South 3.5 mph - N/A   Clear
2:53 AM 73.0 °F - 66.9 °F 81% 30.09 in 10.0 mi South 4.6 mph - N/A   Clear
3:53 AM 71.1 °F - 66.9 °F 87% 30.10 in 10.0 mi Calm Calm - N/A   Clear
4:53 AM 70.0 °F - 66.0 °F 87% 30.09 in 10.0 mi Calm Calm - N/A   Clear
5:53 AM 71.1 °F - 66.0 °F 84% 30.11 in 10.0 mi South 4.6 mph - N/A   Clear
6:53 AM 73.0 °F - 66.9 °F 81% 30.13 in 10.0 mi Calm Calm - N/A   Clear
7:53 AM 77.0 °F - 68.0 °F 74% 30.14 in 10.0 mi South 4.6 mph - N/A   Clear
8:53 AM 80.1 °F 82.9 °F 69.1 °F 69% 30.15 in 10.0 mi South 6.9 mph - N/A   Clear
9:53 AM 82.9 °F 86.5 °F 69.1 °F 63% 30.15 in 10.0 mi South 8.1 mph - N/A   Clear
10:53 AM 84.9 °F 88.8 °F 69.1 °F 59% 30.16 in 10.0 mi South 8.1 mph - N/A   Clear
11:53 AM 86.0 °F 90.1 °F 69.1 °F 57% 30.15 in 10.0 mi South 9.2 mph - N/A   Clear
12:53 PM 87.1 °F 92.0 °F 70.0 °F 57% 30.14 in 10.0 mi South 5.8 mph - N/A   Partly Cloudy
1:53 PM 87.1 °F 89.9 °F 66.9 °F 51% 30.13 in 10.0 mi SE 4.6 mph - N/A   Clear
2:53 PM 86.0 °F 89.4 °F 68.0 °F 55% 30.10 in 10.0 mi SSE 5.8 mph - N/A   Scattered Clouds
3:53 PM 88.0 °F 90.7 °F 66.9 °F 49% 30.06 in 10.0 mi SSW 9.2 mph - N/A   Partly Cloudy
4:53 PM 87.1 °F 90.6 °F 68.0 °F 53% 30.05 in 10.0 mi SSE 5.8 mph - N/A   Partly Cloudy
5:53 PM 86.0 °F 88.8 °F 66.9 °F 53% 30.04 in 10.0 mi South 4.6 mph - N/A   Clear
6:53 PM 84.9 °F 88.2 °F 68.0 °F 57% 30.05 in 10.0 mi South 5.8 mph - N/A   Clear
7:53 PM 82.0 °F 85.5 °F 69.1 °F 65% 30.06 in 10.0 mi Calm Calm - N/A   Clear
8:53 PM 79.0 °F - 69.1 °F 72% 30.06 in 10.0 mi SSE 4.6 mph - N/A   Clear
9:53 PM 73.0 °F - 70.0 °F 90% 30.08 in 10.0 mi Calm Calm - N/A   Clear
10:53 PM 73.0 °F - 69.1 °F 87% 30.09 in 10.0 mi Calm Calm - N/A   Clear
11:53 PM 71.1 °F - 69.1 °F 93% 30.08 in 9.0 mi SSE 3.5 mph - N/A   Clear